Home   Weather   Colchester   Past weeks
Flag for United Kingdom

Past Weather in Colchester, England, United Kingdom — Yesterday and Last 2 Weeks

Now
50 °F

Passing clouds.


Feels Like: 50 °F
Forecast: N/A
Wind: 2 mph from North

Location: Cranfield

Current Time: Mar 26, 2019 at 6:52:37 pm

Latest Report: Mar 26, 2019 at 5:50 pm


Visibility: N/A

Pressure: 30.48 "Hg

Humidity: 67%

Dew Point: 39 °F

Location of ColchesterLocation

Past Weather in Colchester — Graph

°F

Colchester Temperature Yesterday

Maximum temperature yesterday: 54 °F (at 2:20 pm)
Minimum temperature yesterday: 43 °F (at 7:50 am)
Average temperature yesterday: 50 °F

High & Low Weather Summary for the Past Weeks

 TemperatureHumidityPressure
High57 °F (Mar 15, 10:20 am)100% (Mar 12, 11:50 am)30.54 "Hg (Mar 12, 11:50 am)
Low37 °F (Mar 26, 7:20 am)50% (Mar 25, 4:50 pm)29.45 "Hg (Mar 12, 11:20 am)
Average50 °F78%30.11 "Hg
* Reported Mar 11 5:20 pm — Mar 26 5:20 pm, Colchester. Weather by CustomWeather, © 2019

Note: Actual official high and low records may vary slightly from our data, if they occured in-between our weather recording intervals... More about our weather records

Advertising

Colchester Weather History for the Previous 24 Hours

Scroll right to see more
 ConditionsComfort  
Time TempWeatherWind HumidityBarometerVisibility
5:20 pm
Tue, Mar 26
52 °FPassing clouds.3 mph62%30.48 "HgN/A
4:50 pm52 °FPassing clouds.2 mph62%30.48 "HgN/A
4:20 pm52 °FScattered clouds.6 mph58%30.48 "HgN/A
3:50 pm55 °FPartly sunny.7 mph55%30.48 "HgN/A
3:20 pm54 °FScattered clouds.8 mph54%30.48 "HgN/A
2:50 pm54 °FPartly sunny.9 mph58%30.48 "HgN/A
2:20 pm52 °FPartly sunny.7 mph58%30.48 "HgN/A
1:50 pm52 °FPartly sunny.8 mph58%30.51 "HgN/A
1:20 pm52 °FPartly sunny.9 mph58%30.51 "HgN/A
12:20 pm52 °FPartly sunny.7 mph62%30.51 "HgN/A
11:50 am52 °FPartly sunny.8 mph62%30.51 "HgN/A
11:20 am54 °FPartly sunny.8 mph63%30.51 "HgN/A
10:50 am50 °FScattered clouds.8 mph71%30.54 "HgN/A
10:20 am50 °FPassing clouds.7 mph67%30.54 "HgN/A
9:50 am48 °FPassing clouds.8 mph76%30.54 "HgN/A
9:20 am46 °FPassing clouds.9 mph82%30.54 "Hg5 mi
8:50 am46 °FScattered clouds.7 mph82%30.54 "Hg5 mi
8:20 am43 °FFog.7 mph93%30.54 "Hg2 mi
7:50 am39 °FFog.8 mph100%30.54 "Hg1 mi
7:20 am37 °FFog.9 mph100%30.54 "Hg1 mi
Weather by CustomWeather, © 2019

See weather overview